STARLINK-30969, 58438

Orbit data source: Space-Track

STARLINK-30969, 58438 is a payload satellite owned by SpaceX/Seattle (US) in LEO that was launched on Tue, 28 Nov 2023 UTC via an FALCON 9 launch vehicle from the Air Force Eastern Test Range (AFETR). Payload-class satellites include a variety of spacecraft equipped with specific instruments for various scientific and technological missions. These include communications satellites like Starlink; space stations such as the ISS; scientific satellites like the Hubble; Earth observation satellites from companies like Planet Labs, Umbra, and HawkEye 360; GPS; miniature CubeSats for education and research; and military/defense satellites.

Loading next visibility...
Identifier
58438, 2023-183B
Orbit
LEO
Country
Flag of USUS
Related business
Manufacturer
SpaceX/Seattle
Mission
Operational Commercial Communications
Bus & Motor
STARLINK V2M, Unknown motor
Mass
730 kg wet, ~700 kg dry
Launch date (UTC)
2023-11-28 (3 years ago)
Launch vehicle
FALCON 9
Launch site
Air Force Eastern Test Range (AFETR)
Object type
Payload
Rocket body
Debris
Shape & HBR
Box + 2 Pan, 17.7 m
Radar Cross Section
33.884 m², Large (>1 m²)

Expand to show TLE details & history
Last TLE update: 2 days ago

TLE from 2 days ago
0 STARLINK-30969
1 58438U 23183B   26171.08291152  .00013522  00000-0  49968-3 0  9992
2 58438  43.0004 183.3929 0000971 257.6598 102.4146 15.27601512142392
Epoch: 2026-06-20T01:59Z
TLE epoch observation values (Epoch: 2026-06-20T01:59:23.555Z)
Latitude
0.00006°
Longitude
-114.75782°
Altitude
482.903 km
Speed
7.626 km/s
True Right ascension
12h 13m 34s
True Declination
0° 00' 00"
Sunlit
Object was in daylight at epoch
Visualization orbit readout
Latitude
Unknown
Longitude
Unknown
Altitude
Unknown
Speed
Unknown
Apparent Right ascension
Unknown
Apparent Declination
Unknown
Sunlit
N/A
Visualization observer readout
Local Sidereal Time
21:25:02
Azimuth
Unknown
Elevation
Unknown
Doppler factor
Unknown
Orbital elements
Apogee altitude
485.596 km
Perigee altitude
484.263 km
Semi-major axis
6,863.067 km
Eccentricity
0.0001
Inclination
43.0004°
RAAN
183.3929°
Arg. of periapsis
257.6598°
True anomaly
102.42547°
Mean anomaly
102.4146°
Eccentric anomaly
102.42003°
Mean motion
3.81738 °/min
Orbital period
94.31 mins
BSTAR
0.00049968
Loading maneuver chart data...
Computing Atmospheric mass density...
Loading historical data...
Loading historical data...
Loading historical data...
Loading historical data...
Loading historical data...
Loading historical data...
Loading historical data...

Documentation

Showing up to 5 results
|